Location: Casco Volunteer Fire Department
(44.5576°N, 87.6146°W)
Time: 21:24:47
(UTC+00:00)

ISS - Visible Passes

Search period start: 08 March 2026 00:00
Search period end: 18 March 2026 00:00
Orbit: 416 x 427 km, 51.6° (Epoch: 8 March)

Date Brightness Start Highest point End Pass type
(mag) Time Alt. Az. Time Alt. Az. Time Alt. Az.
11 Mar -2.2 01:41:05 10° SW 01:42:54 27° SSW 01:42:54 27° SSW visible
12 Mar -2.7 00:54:26 10° SSW 00:57:22 28° SE 00:58:31 23° ESE visible
12 Mar -0.8 02:30:46 10° W 02:31:33 16° W 02:31:33 16° W visible
13 Mar -3.6 01:43:33 10° WSW 01:46:57 72° NNW 01:46:59 72° NNW visible
14 Mar -3.8 00:56:27 10° SW 00:59:51 75° SE 01:02:15 18° ENE visible
14 Mar -1.0 02:33:52 10° WNW 02:35:15 19° WNW 02:35:15 19° WNW visible
15 Mar -2.5 01:46:29 10° W 01:49:40 37° NNW 01:50:21 33° N visible
16 Mar -2.9 00:59:06 10° W 01:02:25 49° NNW 01:05:20 13° NE visible
16 Mar -0.9 02:36:56 10° WNW 02:38:20 18° NW 02:38:20 18° NW visible
17 Mar -2.0 01:49:30 10° WNW 01:52:26 26° N 01:53:12 24° NNE visible
